QPF
0.04 0.05 0.05 0.05 0.06 0.06 0.05 0.03 0.02 0.02 0.01 0.02 0.03 0.03 0.03 0.03 0.02 0.02 0.02 0.02 0.02 0.03 0.04 0.04 0.03 0.03 0.03 0.03 0.03 0.02 0.03 0.03 0.02 0.02 0.03 0.02 0.01 0.01 0.01 0.01 0.01 0.01 0.01
0.04 0.05 0.06 0.06 0.06 0.07 0.07 0.05 0.03 0.02 0.02 0.02 0.04 0.05 0.04 0.03 0.02 0.03 0.03 0.03 0.02 0.02 0.03 0.04 0.04 0.04 0.03 0.04 0.05 0.03 0.03 0.02 0.02 0.02 0.02 0.02 0.02 0.01 0.01 0.01 0.01 0.00 0.00
0.04 0.04 0.05 0.07 0.07 0.07 0.07 0.07 0.04 0.02 0.03 0.03 0.04 0.04 0.04 0.04 0.02 0.03 0.04 0.05 0.04 0.03 0.03 0.04 0.04 0.04 0.05 0.06 0.05 0.04 0.03 0.03 0.02 0.02 0.02 0.02 0.02 0.01 0.01 0.01 0.00 0.00 0.00
0.05 0.04 0.04 0.06 0.07 0.08 0.09 0.08 0.05 0.04 0.04 0.05 0.05 0.06 0.05 0.04 0.03 0.02 0.03 0.05 0.05 0.04 0.03 0.03 0.03 0.03 0.04 0.07 0.09 0.07 0.04 0.03 0.03 0.03 0.02 0.02 0.02 0.02 0.01 0.01 0.00 0.00 0.01
0.04 0.04 0.04 0.05 0.08 0.08 0.07 0.07 0.05 0.04 0.05 0.05 0.05 0.06 0.07 0.05 0.04 0.03 0.02 0.03 0.04 0.03 0.02 0.02 0.02 0.02 0.02 0.03 0.06 0.10 0.08 0.04 0.03 0.02 0.02 0.02 0.03 0.02 0.01 0.01 0.01 0.01 0.01
0.04 0.04 0.04 0.05 0.09 0.09 0.07 0.05 0.04 0.03 0.03 0.04 0.04 0.05 0.06 0.05 0.04 0.03 0.03 0.03 0.03 0.03 0.03 0.02 0.01 0.01 0.01 0.02 0.03 0.09 0.11 0.08 0.04 0.02 0.02 0.02 0.02 0.02 0.02 0.01 0.01 0.01 0.00
0.03 0.04 0.04 0.05 0.09 0.09 0.07 0.06 0.03 0.02 0.02 0.03 0.05 0.05 0.06 0.06 0.05 0.04 0.03 0.03 0.04 0.03 0.03 0.03 0.02 0.01 0.01 0.01 0.03 0.06 0.09 0.06 0.05 0.04 0.03 0.03 0.03 0.03 0.02 0.02 0.01 0.01 0.01
0.05 0.06 0.05 0.05 0.07 0.08 0.06 0.05 0.04 0.02 0.02 0.02 0.05 0.07 0.06 0.06 0.05 0.04 0.03 0.03 0.03 0.03 0.03 0.02 0.02 0.02 0.01 0.01 0.03 0.04 0.05 0.05 0.05 0.06 0.05 0.04 0.04 0.03 0.03 0.03 0.02 0.01 0.01
0.04 0.06 0.06 0.06 0.07 0.08 0.06 0.04 0.03 0.03 0.03 0.03 0.03 0.06 0.06 0.04 0.03 0.03 0.02 0.01 0.02 0.02 0.02 0.02 0.02 0.02 0.02 0.02 0.03 0.04 0.04 0.04 0.06 0.07 0.08 0.07 0.06 0.06 0.05 0.05 0.03 0.02 0.01
0.02 0.03 0.04 0.05 0.05 0.05 0.04 0.05 0.03 0.02 0.03 0.04 0.03 0.03 0.05 0.05 0.03 0.04 0.03 0.01 0.01 0.01 0.02 0.03 0.02 0.02 0.01 0.01 0.02 0.03 0.04 0.04 0.05 0.07 0.08 0.09 0.09 0.09 0.08 0.07 0.06 0.04 0.02
0.01 0.01 0.02 0.02 0.03 0.03 0.03 0.03 0.02 0.02 0.02 0.04 0.03 0.02 0.03 0.04 0.04 0.04 0.04 0.02 0.01 0.01 0.02 0.03 0.02 0.02 0.01 0.01 0.01 0.02 0.03 0.03 0.05 0.06 0.08 0.10 0.12 0.13 0.12 0.11 0.10 0.09 0.08
0.01 0.01 0.01 0.01 0.01 0.01 0.02 0.02 0.02 0.03 0.03 0.04 0.03 0.02 0.03 0.03 0.03 0.04 0.05 0.04 0.02 0.02 0.02 0.02 0.03 0.02 0.02 0.02 0.02 0.02 0.02 0.02 0.03 0.03 0.05 0.07 0.09 0.12 0.13 0.13 0.12 0.11 0.09
0.00 0.00 0.00 0.01 0.01 0.01 0.01 0.02 0.02 0.02 0.03 0.04 0.05 0.04 0.04 0.03 0.02 0.02 0.04 0.04 0.03 0.02 0.02 0.03 0.04 0.05 0.03 0.03 0.02 0.02 0.02 0.02 0.02 0.03 0.03 0.05 0.06 0.08 0.10 0.12 0.13 0.12 0.09
0.00 0.00 0.00 0.00 0.01 0.01 0.01 0.01 0.01 0.01 0.02 0.02 0.04 0.05 0.04 0.03 0.02 0.02 0.02 0.03 0.03 0.02 0.02 0.03 0.03 0.04 0.04 0.05 0.03 0.03 0.03 0.03 0.03 0.04 0.05 0.05 0.04 0.04 0.05 0.08 0.10 0.10 0.09
0.01 0.00 0.00 0.00 0.00 0.01 0.01 0.01 0.01 0.01 0.01 0.01 0.02 0.03 0.03 0.02 0.02 0.02 0.02 0.03 0.04 0.03 0.02 0.02 0.02 0.03 0.03 0.04 0.04 0.03 0.03 0.03 0.04 0.05 0.06 0.06 0.05 0.04 0.04 0.06 0.08 0.09 0.07
0.01 0.01 0.01 0.01 0.01 0.01 0.01 0.01 0.01 0.01 0.01 0.01 0.01 0.02 0.03 0.02 0.02 0.01 0.01 0.02 0.03 0.03 0.03 0.01 0.01 0.02 0.03 0.03 0.03 0.04 0.03 0.04 0.04 0.05 0.06 0.05 0.05 0.04 0.04 0.05 0.05 0.07 0.07
0.02 0.02 0.02 0.02 0.02 0.01 0.01 0.01 0.01 0.01 0.01 0.01 0.01 0.02 0.02 0.02 0.02 0.02 0.01 0.01 0.01 0.02 0.03 0.03 0.03 0.02 0.03 0.02 0.03 0.04 0.04 0.04 0.04 0.05 0.06 0.05 0.04 0.04 0.04 0.04 0.04 0.04 0.06
0.02 0.02 0.03 0.02 0.02 0.02 0.02 0.01 0.01 0.02 0.01 0.01 0.01 0.01 0.02 0.02 0.02 0.02 0.01 0.01 0.01 0.02 0.02 0.05 0.05 0.03 0.02 0.03 0.03 0.03 0.04 0.04 0.04 0.06 0.06 0.05 0.04 0.04 0.05 0.04 0.03 0.04 0.04
0.02 0.02 0.02 0.03 0.02 0.02 0.02 0.02 0.02 0.02 0.02 0.02 0.01 0.01 0.01 0.02 0.02 0.02 0.01 0.01 0.01 0.01 0.02 0.03 0.04 0.02 0.02 0.02 0.03 0.03 0.03 0.03 0.03 0.05 0.06 0.06 0.05 0.05 0.06 0.05 0.03 0.03 0.02
0.02 0.02 0.03 0.03 0.03 0.02 0.02 0.02 0.02 0.02 0.02 0.02 0.02 0.02 0.02 0.02 0.02 0.02 0.01 0.01 0.01 0.01 0.02 0.02 0.01 0.02 0.02 0.02 0.02 0.03 0.03 0.02 0.03 0.03 0.04 0.05 0.05 0.06 0.07 0.04 0.03 0.03 0.02
0.02 0.01 0.02 0.02 0.02 0.03 0.02 0.02 0.02 0.02 0.02 0.02 0.01 0.01 0.01 0.01 0.01 0.01 0.01 0.01 0.01 0.01 0.02 0.02 0.01 0.02 0.02 0.01 0.02 0.02 0.03 0.03 0.03 0.03 0.03 0.03 0.04 0.05 0.05 0.04 0.04 0.03 0.03
0.02 0.02 0.02 0.01 0.01 0.02 0.02 0.02 0.01 0.01 0.01 0.01 0.01 0.01 0.01 0.01 0.01 0.01 0.01 0.01 0.01 0.01 0.02 0.02 0.01 0.01 0.01 0.01 0.01 0.02 0.03 0.03 0.03 0.03 0.03 0.03 0.03 0.04 0.05 0.04 0.03 0.03 0.02
0.01 0.02 0.02 0.02 0.02 0.02 0.02 0.02 0.01 0.01 0.01 0.01 0.01 0.01 0.01 0.01 0.01 0.01 0.01 0.01 0.01 0.01 0.02 0.02 0.02 0.02 0.02 0.01 0.02 0.03 0.03 0.03 0.03 0.03 0.03 0.04 0.03 0.03 0.04 0.03 0.02 0.02 0.02
0.01 0.01 0.01 0.01 0.01 0.02 0.02 0.02 0.02 0.01 0.01 0.01 0.01 0.01 0.01 0.01 0.01 0.01 0.01 0.01 0.01 0.01 0.02 0.02 0.02 0.02 0.02 0.02 0.03 0.03 0.03 0.04 0.04 0.03 0.03 0.03 0.03 0.02 0.02 0.02 0.02 0.02 0.02
0.01 0.01 0.01 0.01 0.01 0.01 0.02 0.02 0.02 0.02 0.02 0.02 0.01 0.01 0.01 0.01 0.01 0.02 0.02 0.02 0.01 0.01 0.01 0.01 0.02 0.02 0.03 0.03 0.03 0.03 0.03 0.03 0.03 0.02 0.02 0.02 0.02 0.02 0.02 0.02 0.02 0.02 0.02
0.01 0.01 0.01 0.01 0.01 0.01 0.01 0.01 0.02 0.02 0.02 0.01 0.01 0.01 0.01 0.01 0.01 0.01 0.02 0.02 0.01 0.01 0.01 0.01 0.01 0.02 0.02 0.02 0.02 0.03 0.03 0.03 0.02 0.02 0.01 0.02 0.02 0.02 0.03 0.02 0.02 0.03 0.03
MSLP
1018.27 1018.45 1018.54 1018.58 1018.58 1018.60 1018.65 1018.74 1018.89 1019.06 1019.23 1019.37 1019.48 1019.53 1019.53 1019.51 1019.48 1019.45 1019.45 1019.48 1019.53 1019.61 1019.71 1019.82 1019.97 1020.14 1020.35 1020.61 1020.91 1021.24 1021.58 1021.92 1022.25 1022.54 1022.81 1023.04 1023.26 1023.46 1023.66 1023.85 1024.02 1024.18 1024.32
1018.38 1018.48 1018.52 1018.52 1018.51 1018.53 1018.59 1018.72 1018.89 1019.09 1019.30 1019.48 1019.61 1019.68 1019.70 1019.69 1019.65 1019.61 1019.59 1019.59 1019.60 1019.63 1019.69 1019.77 1019.88 1020.03 1020.23 1020.48 1020.78 1021.13 1021.50 1021.87 1022.22 1022.56 1022.85 1023.12 1023.36 1023.59 1023.80 1024.00 1024.19 1024.37 1024.53
1018.45 1018.49 1018.49 1018.46 1018.45 1018.48 1018.57 1018.73 1018.94 1019.17 1019.41 1019.61 1019.76 1019.85 1019.89 1019.89 1019.86 1019.82 1019.78 1019.75 1019.72 1019.71 1019.72 1019.74 1019.81 1019.92 1020.09 1020.32 1020.61 1020.96 1021.33 1021.73 1022.11 1022.47 1022.81 1023.11 1023.38 1023.63 1023.87 1024.09 1024.30 1024.50 1024.68
1018.51 1018.50 1018.47 1018.44 1018.44 1018.50 1018.62 1018.80 1019.03 1019.29 1019.53 1019.75 1019.91 1020.02 1020.08 1020.09 1020.08 1020.05 1020.00 1019.95 1019.90 1019.85 1019.81 1019.78 1019.79 1019.85 1019.97 1020.16 1020.42 1020.75 1021.12 1021.51 1021.92 1022.30 1022.66 1023.00 1023.30 1023.58 1023.84 1024.08 1024.32 1024.54 1024.75
1018.58 1018.54 1018.49 1018.47 1018.49 1018.58 1018.73 1018.93 1019.17 1019.42 1019.66 1019.87 1020.03 1020.15 1020.22 1020.26 1020.27 1020.26 1020.24 1020.19 1020.13 1020.05 1019.96 1019.89 1019.84 1019.83 1019.89 1020.03 1020.24 1020.53 1020.87 1021.25 1021.65 1022.05 1022.43 1022.79 1023.12 1023.43 1023.71 1023.98 1024.24 1024.49 1024.72
1018.67 1018.61 1018.56 1018.56 1018.61 1018.73 1018.89 1019.10 1019.33 1019.56 1019.77 1019.96 1020.11 1020.22 1020.31 1020.37 1020.42 1020.45 1020.45 1020.43 1020.37 1020.28 1020.17 1020.05 1019.94 1019.87 1019.86 1019.93 1020.08 1020.31 1020.61 1020.96 1021.34 1021.73 1022.12 1022.49 1022.85 1023.18 1023.50 1023.80 1024.09 1024.36 1024.62
1018.77 1018.71 1018.68 1018.70 1018.78 1018.92 1019.09 1019.29 1019.49 1019.68 1019.85 1019.99 1020.12 1020.23 1020.33 1020.43 1020.52 1020.59 1020.64 1020.64 1020.60 1020.51 1020.38 1020.23 1020.07 1019.94 1019.87 1019.86 1019.94 1020.10 1020.34 1020.64 1020.99 1021.36 1021.75 1022.13 1022.51 1022.88 1023.23 1023.56 1023.88 1024.19 1024.48
1018.90 1018.84 1018.82 1018.87 1018.97 1019.11 1019.28 1019.45 1019.61 1019.75 1019.87 1019.97 1020.07 1020.17 1020.29 1020.42 1020.55 1020.67 1020.76 1020.81 1020.78 1020.70 1020.56 1020.38 1020.18 1020.00 1019.86 1019.79 1019.79 1019.89 1020.06 1020.31 1020.62 1020.97 1021.35 1021.75 1022.15 1022.55 1022.94 1023.32 1023.68 1024.02 1024.35
1019.06 1018.99 1018.98 1019.04 1019.15 1019.29 1019.43 1019.57 1019.68 1019.77 1019.84 1019.90 1019.98 1020.08 1020.21 1020.36 1020.53 1020.69 1020.81 1020.88 1020.88 1020.79 1020.64 1020.44 1020.21 1020.00 1019.81 1019.68 1019.63 1019.67 1019.78 1019.98 1020.25 1020.58 1020.96 1021.37 1021.80 1022.24 1022.68 1023.11 1023.52 1023.91 1024.27
1019.23 1019.15 1019.15 1019.20 1019.30 1019.41 1019.53 1019.62 1019.69 1019.72 1019.75 1019.79 1019.85 1019.95 1020.09 1020.27 1020.46 1020.64 1020.78 1020.85 1020.85 1020.76 1020.60 1020.39 1020.15 1019.90 1019.69 1019.53 1019.45 1019.44 1019.51 1019.67 1019.91 1020.23 1020.60 1021.03 1021.49 1021.98 1022.48 1022.97 1023.44 1023.88 1024.29
1019.43 1019.33 1019.30 1019.33 1019.40 1019.48 1019.55 1019.60 1019.61 1019.61 1019.61 1019.63 1019.69 1019.79 1019.94 1020.13 1020.33 1020.51 1020.64 1020.71 1020.69 1020.60 1020.43 1020.21 1019.97 1019.72 1019.51 1019.34 1019.24 1019.21 1019.26 1019.40 1019.62 1019.92 1020.30 1020.75 1021.25 1021.79 1022.35 1022.90 1023.43 1023.93 1024.39
1019.65 1019.51 1019.45 1019.43 1019.45 1019.48 1019.50 1019.50 1019.47 1019.45 1019.42 1019.44 1019.49 1019.60 1019.76 1019.94 1020.13 1020.30 1020.41 1020.45 1020.42 1020.31 1020.13 1019.92 1019.69 1019.47 1019.28 1019.13 1019.04 1019.01 1019.05 1019.18 1019.39 1019.69 1020.08 1020.55 1021.09 1021.67 1022.29 1022.90 1023.49 1024.04 1024.54
1019.89 1019.70 1019.58 1019.51 1019.46 1019.43 1019.39 1019.34 1019.28 1019.22 1019.19 1019.20 1019.26 1019.37 1019.53 1019.70 1019.87 1020.01 1020.09 1020.09 1020.03 1019.91 1019.74 1019.55 1019.36 1019.18 1019.03 1018.93 1018.86 1018.86 1018.92 1019.04 1019.25 1019.55 1019.94 1020.42 1020.98 1021.60 1022.26 1022.93 1023.57 1024.16 1024.70
1020.14 1019.90 1019.72 1019.57 1019.45 1019.34 1019.24 1019.13 1019.04 1018.96 1018.92 1018.92 1018.98 1019.09 1019.24 1019.39 1019.53 1019.62 1019.67 1019.65 1019.57 1019.45 1019.30 1019.15 1019.01 1018.89 1018.81 1018.76 1018.75 1018.78 1018.85 1018.98 1019.18 1019.47 1019.86 1020.34 1020.91 1021.56 1022.24 1022.94 1023.62 1024.25 1024.81
1020.41 1020.12 1019.86 1019.64 1019.44 1019.26 1019.08 1018.92 1018.78 1018.67 1018.61 1018.61 1018.65 1018.75 1018.87 1019.00 1019.10 1019.16 1019.17 1019.13 1019.04 1018.94 1018.83 1018.73 1018.67 1018.63 1018.63 1018.65 1018.69 1018.76 1018.85 1018.99 1019.18 1019.46 1019.82 1020.29 1020.86 1021.50 1022.19 1022.90 1023.60 1024.25 1024.82
1020.69 1020.35 1020.03 1019.74 1019.46 1019.20 1018.95 1018.73 1018.53 1018.39 1018.29 1018.26 1018.28 1018.35 1018.44 1018.52 1018.59 1018.61 1018.60 1018.55 1018.48 1018.41 1018.35 1018.33 1018.35 1018.40 1018.48 1018.58 1018.68 1018.79 1018.90 1019.04 1019.22 1019.47 1019.81 1020.25 1020.79 1021.41 1022.09 1022.79 1023.48 1024.14 1024.72
1021.00 1020.61 1020.24 1019.88 1019.53 1019.20 1018.88 1018.59 1018.33 1018.13 1017.99 1017.91 1017.89 1017.90 1017.94 1017.98 1018.01 1018.00 1017.97 1017.93 1017.88 1017.86 1017.87 1017.93 1018.03 1018.17 1018.34 1018.51 1018.67 1018.81 1018.94 1019.08 1019.25 1019.48 1019.78 1020.18 1020.68 1021.26 1021.91 1022.59 1023.27 1023.91 1024.50
1021.31 1020.89 1020.48 1020.07 1019.66 1019.26 1018.88 1018.52 1018.20 1017.93 1017.72 1017.57 1017.48 1017.43 1017.41 1017.40 1017.38 1017.34 1017.31 1017.27 1017.26 1017.28 1017.36 1017.49 1017.68 1017.90 1018.14 1018.37 1018.59 1018.77 1018.93 1019.07 1019.24 1019.44 1019.72 1020.08 1020.53 1021.07 1021.67 1022.32 1022.96 1023.59 1024.17
1021.62 1021.19 1020.75 1020.30 1019.85 1019.39 1018.95 1018.52 1018.13 1017.78 1017.50 1017.27 1017.10 1016.98 1016.88 1016.81 1016.74 1016.68 1016.62 1016.60 1016.61 1016.67 1016.80 1017.00 1017.25 1017.53 1017.84 1018.13 1018.39 1018.61 1018.80 1018.96 1019.13 1019.33 1019.59 1019.93 1020.34 1020.83 1021.39 1021.98 1022.59 1023.19 1023.76
1021.91 1021.47 1021.02 1020.55 1020.06 1019.56 1019.06 1018.58 1018.12 1017.70 1017.33 1017.02 1016.77 1016.56 1016.39 1016.24 1016.12 1016.02 1015.95 1015.92 1015.94 1016.02 1016.19 1016.42 1016.71 1017.04 1017.38 1017.71 1018.02 1018.28 1018.51 1018.72 1018.91 1019.13 1019.39 1019.71 1020.10 1020.55 1021.06 1021.61 1022.18 1022.74 1023.29
1022.15 1021.72 1021.26 1020.78 1020.27 1019.74 1019.20 1018.66 1018.14 1017.66 1017.22 1016.83 1016.49 1016.20 1015.96 1015.74 1015.56 1015.41 1015.31 1015.25 1015.26 1015.35 1015.51 1015.74 1016.04 1016.39 1016.75 1017.12 1017.46 1017.77 1018.05 1018.31 1018.55 1018.81 1019.10 1019.43 1019.81 1020.23 1020.70 1021.21 1021.73 1022.26 1022.78
1022.32 1021.89 1021.43 1020.94 1020.42 1019.88 1019.31 1018.74 1018.18 1017.64 1017.14 1016.69 1016.28 1015.92 1015.61 1015.33 1015.09 1014.89 1014.73 1014.63 1014.60 1014.65 1014.78 1014.99 1015.27 1015.60 1015.97 1016.34 1016.72 1017.08 1017.42 1017.74 1018.05 1018.37 1018.70 1019.06 1019.45 1019.86 1020.30 1020.77 1021.25 1021.74 1022.23
1022.39 1021.96 1021.50 1021.01 1020.49 1019.93 1019.36 1018.77 1018.18 1017.61 1017.08 1016.58 1016.13 1015.71 1015.34 1015.01 1014.71 1014.45 1014.23 1014.08 1013.98 1013.97 1014.03 1014.18 1014.41 1014.70 1015.05 1015.42 1015.82 1016.22 1016.62 1017.01 1017.40 1017.79 1018.19 1018.59 1019.00 1019.42 1019.85 1020.28 1020.72 1021.17 1021.64
1022.34 1021.92 1021.46 1020.97 1020.45 1019.89 1019.31 1018.73 1018.13 1017.56 1017.01 1016.49 1016.01 1015.57 1015.15 1014.77 1014.42 1014.11 1013.83 1013.60 1013.42 1013.32 1013.30 1013.37 1013.52 1013.75 1014.05 1014.41 1014.81 1015.24 1015.69 1016.15 1016.61 1017.08 1017.54 1017.99 1018.44 1018.87 1019.30 1019.72 1020.14 1020.57 1021.01
1022.19 1021.76 1021.29 1020.81 1020.29 1019.74 1019.17 1018.59 1018.01 1017.45 1016.91 1016.39 1015.90 1015.45 1015.01 1014.61 1014.21 1013.84 1013.50 1013.19 1012.93 1012.74 1012.61 1012.58 1012.64 1012.79 1013.03 1013.35 1013.74 1014.18 1014.66 1015.18 1015.70 1016.23 1016.75 1017.26 1017.75 1018.21 1018.65 1019.07 1019.49 1019.91 1020.34
1021.94 1021.50 1021.04 1020.55 1020.03 1019.49 1018.94 1018.38 1017.82 1017.28 1016.75 1016.25 1015.78 1015.32 1014.89 1014.46 1014.04 1013.63 1013.23 1012.85 1012.51 1012.22 1012.00 1011.86 1011.82 1011.88 1012.05 1012.31 1012.67 1013.10 1013.59 1014.13 1014.69 1015.27 1015.84 1016.39 1016.92 1017.42 1017.89 1018.33 1018.77 1019.20 1019.64
Thickness
5640 5641 5642 5644 5645 5646 5647 5648 5648 5650 5650 5652 5652 5653 5654 5655 5656 5657 5657 5658 5659 5660 5660 5661 5660 5660 5659 5658 5658 5657 5655 5654 5653 5652 5651 5649 5648 5647 5646 5645 5644 5643 5642
5633 5634 5635 5636 5637 5638 5639 5640 5640 5642 5643 5644 5645 5646 5647 5648 5649 5649 5650 5651 5652 5653 5653 5654 5653 5653 5653 5652 5651 5650 5649 5648 5647 5646 5645 5644 5642 5641 5640 5639 5637 5636 5635
5625 5626 5627 5628 5629 5631 5631 5631 5632 5633 5634 5636 5636 5637 5638 5639 5641 5641 5642 5643 5644 5645 5646 5646 5646 5646 5645 5645 5644 5643 5643 5642 5641 5640 5639 5637 5636 5635 5633 5632 5631 5629 5628
5618 5618 5620 5621 5622 5623 5623 5623 5624 5624 5625 5626 5627 5628 5629 5631 5632 5633 5634 5635 5636 5636 5637 5638 5638 5638 5638 5637 5637 5636 5635 5634 5634 5633 5632 5631 5629 5628 5627 5625 5624 5622 5621
5609 5611 5612 5613 5614 5614 5614 5615 5614 5615 5616 5617 5618 5619 5620 5621 5623 5624 5625 5625 5626 5627 5628 5629 5629 5629 5629 5629 5629 5628 5627 5627 5626 5625 5624 5623 5622 5621 5620 5618 5617 5616 5614
5601 5602 5603 5604 5605 5606 5605 5606 5605 5606 5607 5608 5609 5608 5609 5611 5613 5614 5615 5616 5617 5618 5618 5619 5619 5620 5620 5620 5620 5620 5619 5619 5618 5617 5617 5616 5615 5614 5613 5611 5610 5608 5607
5592 5594 5595 5596 5597 5598 5598 5598 5597 5597 5597 5599 5599 5597 5598 5600 5602 5603 5605 5606 5607 5607 5608 5609 5610 5610 5611 5611 5611 5611 5611 5610 5610 5609 5608 5608 5607 5607 5605 5604 5602 5601 5599
5584 5586 5587 5587 5589 5589 5590 5590 5590 5589 5589 5590 5590 5588 5586 5588 5590 5592 5593 5595 5596 5597 5598 5599 5599 5600 5601 5602 5602 5602 5602 5602 5601 5601 5600 5599 5598 5598 5597 5596 5595 5593 5591
5577 5578 5578 5579 5580 5581 5581 5581 5582 5582 5581 5580 5582 5582 5579 5579 5578 5580 5582 5583 5585 5586 5587 5589 5589 5590 5591 5592 5592 5593 5593 5592 5592 5592 5591 5590 5589 5589 5588 5588 5586 5584 5583
5567 5568 5569 5570 5571 5571 5572 5573 5573 5574 5574 5573 5572 5573 5573 5573 5570 5569 5570 5571 5573 5575 5577 5578 5579 5580 5580 5581 5582 5583 5583 5583 5583 5582 5582 5582 5581 5580 5580 5579 5578 5576 5574
5558 5559 5560 5560 5561 5561 5563 5564 5564 5565 5566 5566 5566 5564 5564 5562 5562 5561 5560 5560 5561 5564 5566 5567 5568 5569 5570 5571 5572 5572 5573 5573 5573 5572 5572 5572 5572 5572 5571 5570 5569 5567 5564
5549 5550 5551 5551 5552 5553 5554 5555 5556 5557 5558 5558 5558 5558 5557 5556 5554 5553 5551 5550 5551 5553 5554 5556 5557 5559 5560 5561 5562 5562 5562 5562 5562 5562 5562 5562 5562 5562 5561 5560 5559 5558 5556
5539 5541 5542 5542 5543 5544 5545 5546 5547 5548 5549 5549 5549 5549 5548 5548 5547 5546 5544 5541 5541 5541 5544 5546 5547 5549 5549 5550 5551 5551 5552 5551 5551 5550 5551 5551 5551 5551 5550 5550 5549 5548 5546
5531 5532 5533 5533 5534 5534 5535 5536 5538 5539 5539 5539 5540 5539 5539 5539 5539 5538 5536 5533 5531 5531 5532 5535 5537 5538 5539 5539 5540 5540 5540 5540 5539 5539 5540 5540 5540 5539 5539 5539 5538 5537 5535
5522 5523 5523 5524 5524 5525 5526 5527 5528 5529 5529 5529 5530 5530 5530 5530 5529 5529 5528 5528 5526 5523 5524 5526 5526 5529 5529 5528 5529 5529 5529 5529 5529 5529 5528 5528 5528 5528 5527 5527 5527 5526 5524
5513 5514 5514 5514 5515 5515 5516 5517 5518 5519 5519 5520 5519 5519 5520 5520 5519 5519 5518 5518 5517 5517 5517 5517 5516 5517 5517 5517 5517 5517 5518 5517 5518 5518 5517 5517 5516 5516 5516 5515 5515 5514 5513
5503 5504 5505 5505 5506 5506 5507 5507 5508 5509 5509 5509 5509 5509 5509 5509 5508 5508 5507 5507 5506 5505 5505 5505 5504 5504 5504 5505 5505 5506 5506 5506 5506 5507 5506 5506 5506 5505 5505 5504 5503 5503 5502
5493 5495 5496 5497 5498 5498 5498 5498 5499 5499 5499 5499 5499 5498 5498 5498 5498 5497 5496 5495 5495 5495 5493 5492 5491 5491 5491 5492 5493 5493 5493 5494 5494 5495 5495 5495 5495 5494 5494 5494 5493 5491 5490
5484 5485 5487 5488 5488 5489 5489 5490 5490 5490 5490 5490 5489 5488 5488 5487 5487 5486 5485 5485 5484 5483 5482 5480 5479 5478 5478 5479 5479 5479 5480 5481 5482 5482 5483 5483 5482 5482 5483 5483 5482 5481 5479
5475 5476 5477 5478 5479 5479 5480 5480 5479 5479 5480 5479 5479 5478 5478 5478 5477 5476 5475 5474 5473 5471 5470 5469 5467 5466 5466 5466 5466 5465 5466 5467 5468 5469 5470 5470 5470 5470 5470 5471 5471 5470 5468
5465 5466 5467 5468 5469 5469 5469 5469 5469 5469 5469 5469 5468 5468 5468 5468 5467 5467 5466 5464 5462 5460 5458 5457 5455 5454 5454 5453 5454 5453 5452 5452 5453 5455 5457 5458 5458 5459 5458 5458 5458 5457 5457
5455 5456 5457 5457 5458 5459 5460 5460 5460 5459 5459 5459 5458 5457 5457 5456 5456 5456 5455 5454 5453 5451 5449 5447 5445 5445 5445 5444 5443 5441 5439 5438 5439 5442 5442 5444 5444 5445 5446 5445 5445 5445 5444
5444 5445 5446 5447 5448 5449 5449 5450 5449 5448 5447 5447 5446 5446 5446 5446 5445 5444 5444 5443 5442 5442 5442 5440 5438 5437 5436 5435 5432 5429 5428 5428 5430 5430 5428 5430 5431 5432 5433 5433 5433 5433 5432
5433 5434 5435 5436 5437 5438 5438 5438 5437 5436 5435 5435 5434 5434 5434 5433 5433 5432 5432 5431 5431 5431 5431 5430 5430 5429 5427 5425 5423 5422 5420 5418 5418 5417 5416 5417 5419 5419 5421 5421 5421 5420 5419
5422 5423 5424 5424 5425 5426 5426 5426 5425 5424 5423 5423 5423 5422 5422 5422 5423 5422 5421 5420 5420 5419 5419 5418 5418 5417 5415 5414 5412 5409 5407 5405 5405 5406 5404 5404 5406 5405 5408 5409 5409 5407 5407
5410 5412 5412 5413 5413 5414 5415 5414 5413 5413 5413 5412 5412 5412 5412 5412 5412 5411 5410 5409 5408 5408 5407 5406 5406 5405 5404 5402 5401 5399 5397 5394 5393 5393 5393 5392 5392 5391 5393 5398 5397 5396 5394